TimePDT,TemperatureF,Dew PointF,Humidity,Sea Level PressureIn,VisibilityMPH,Wind Direction,Wind SpeedMPH,Gust SpeedMPH,PrecipitationIn,Events,Conditions,WindDirDegrees,DateUTC
12:15 AM,48.2,46.4,93,30.00,10.0,NNE,3.5,-,N/A,,Overcast,30,2013-03-28 07:15:00
12:35 AM,48.2,46.4,93,30.02,9.0,SW,3.5,-,N/A,,Overcast,230,2013-03-28 07:35:00
12:55 AM,48.2,46.4,93,30.02,9.0,SW,3.5,-,0.01,,Overcast,230,2013-03-28 07:55:00
1:15 AM,48.2,48.2,100,30.02,9.0,Calm,Calm,-,N/A,Rain,Light Rain,0,2013-03-28 08:15:00
1:35 AM,48.2,48.2,100,30.03,7.0,Calm,Calm,-,0.01,Rain,Light Rain,0,2013-03-28 08:35:00
1:55 AM,48.2,48.2,100,30.03,5.0,Calm,Calm,-,0.05,Rain,Rain,0,2013-03-28 08:55:00
2:15 AM,48.2,48.2,100,30.03,5.0,Calm,Calm,-,N/A,Rain,Light Rain,0,2013-03-28 09:15:00
2:35 AM,48.2,48.2,100,30.03,6.0,Calm,Calm,-,0.02,Rain,Light Rain,0,2013-03-28 09:35:00
2:55 AM,48.2,48.2,100,30.03,7.0,Calm,Calm,-,0.03,Rain,Light Rain,0,2013-03-28 09:55:00
3:15 AM,48.2,48.2,100,30.03,5.0,Calm,Calm,-,0.01,Rain,Light Rain,0,2013-03-28 10:15:00
3:35 AM,48.2,48.2,100,30.04,4.0,Calm,Calm,-,0.02,Rain,Light Rain,0,2013-03-28 10:35:00
3:55 AM,48.2,48.2,100,30.04,5.0,Calm,Calm,-,0.03,Rain,Light Rain,0,2013-03-28 10:55:00
4:15 AM,48.2,48.2,100,30.04,7.0,Calm,Calm,-,N/A,,Overcast,0,2013-03-28 11:15:00
4:35 AM,48.2,48.2,100,30.04,3.0,Calm,Calm,-,N/A,,Overcast,0,2013-03-28 11:35:00
4:55 AM,48.2,48.2,100,30.04,3.0,Calm,Calm,-,N/A,,Overcast,0,2013-03-28 11:55:00
5:15 AM,48.2,48.2,100,30.04,5.0,Calm,Calm,-,N/A,,Overcast,0,2013-03-28 12:15:00
5:35 AM,48.2,48.2,100,30.05,5.0,Calm,Calm,-,N/A,,Overcast,0,2013-03-28 12:35:00
5:55 AM,48.2,48.2,100,30.05,6.0,Calm,Calm,-,N/A,,Overcast,0,2013-03-28 12:55:00
6:15 AM,48.2,48.2,100,30.05,6.0,Calm,Calm,-,N/A,,Overcast,0,2013-03-28 13:15:00
6:35 AM,48.2,48.2,100,30.05,5.0,Calm,Calm,-,N/A,,Overcast,0,2013-03-28 13:35:00
7:15 AM,48.2,48.2,100,30.06,3.0,NNE,3.5,-,N/A,,Overcast,30,2013-03-28 14:15:00
7:35 AM,48.2,48.2,100,30.07,3.0,Calm,Calm,-,N/A,,Overcast,0,2013-03-28 14:35:00
7:55 AM,48.2,48.2,100,30.07,3.0,Calm,Calm,-,N/A,,Overcast,0,2013-03-28 14:55:00
8:15 AM,48.2,48.2,100,30.07,3.0,Calm,Calm,-,N/A,,Overcast,0,2013-03-28 15:15:00
8:35 AM,48.2,48.2,100,30.08,5.0,Calm,Calm,-,N/A,,Overcast,0,2013-03-28 15:35:00
8:55 AM,50.0,48.2,94,30.08,7.0,Calm,Calm,-,N/A,,Overcast,0,2013-03-28 15:55:00
9:15 AM,50.0,48.2,94,30.08,8.0,Calm,Calm,-,N/A,,Overcast,0,2013-03-28 16:15:00
9:35 AM,50.0,48.2,94,30.09,6.0,Calm,Calm,-,N/A,,Overcast,0,2013-03-28 16:35:00
9:55 AM,50.0,48.2,94,30.09,10.0,SE,3.5,-,N/A,,Overcast,130,2013-03-28 16:55:00
10:15 AM,53.6,48.2,82,30.09,10.0,ESE,4.6,-,N/A,,Overcast,110,2013-03-28 17:15:00
10:35 AM,53.6,48.2,82,30.10,10.0,East,3.5,-,N/A,,Overcast,90,2013-03-28 17:35:00
10:55 AM,53.6,48.2,82,30.10,10.0,SSE,3.5,-,N/A,,Overcast,150,2013-03-28 17:55:00
11:15 AM,53.6,48.2,82,30.10,10.0,Calm,Calm,-,N/A,,Mostly Cloudy,0,2013-03-28 18:15:00
11:35 AM,57.2,48.2,72,30.10,10.0,Calm,Calm,-,N/A,,Mostly Cloudy,0,2013-03-28 18:35:00
11:55 AM,55.4,48.2,77,30.10,10.0,Calm,Calm,-,N/A,,Scattered Clouds,0,2013-03-28 18:55:00
12:15 PM,57.2,48.2,72,30.10,10.0,Calm,Calm,-,N/A,,Scattered Clouds,0,2013-03-28 19:15:00
12:35 PM,57.2,48.2,72,30.10,10.0,NNW,3.5,-,N/A,,Mostly Cloudy,330,2013-03-28 19:35:00
12:55 PM,55.4,50.0,82,30.09,7.0,Calm,Calm,-,N/A,Rain,Light Rain,0,2013-03-28 19:55:00
1:15 PM,55.4,48.2,77,30.09,10.0,Calm,Calm,-,N/A,,Partly Cloudy,0,2013-03-28 20:15:00
1:35 PM,55.4,46.4,72,30.09,10.0,SE,3.5,-,N/A,,Partly Cloudy,130,2013-03-28 20:35:00
1:55 PM,59.0,46.4,63,30.09,10.0,Calm,Calm,-,0.01,,Clear,0,2013-03-28 20:55:00
2:15 PM,57.2,46.4,67,30.09,10.0,SSW,5.8,-,N/A,,Partly Cloudy,200,2013-03-28 21:15:00
2:35 PM,55.4,48.2,77,30.10,6.0,South,8.1,-,N/A,Rain,Light Rain,170,2013-03-28 21:35:00
3:15 PM,59.0,48.2,67,30.09,10.0,NNE,3.5,-,N/A,,Partly Cloudy,30,2013-03-28 22:15:00
3:35 PM,59.0,48.2,67,30.09,10.0,NNE,4.6,-,N/A,,Partly Cloudy,20,2013-03-28 22:35:00
3:55 PM,59.0,48.2,67,30.09,10.0,NNE,6.9,-,N/A,,Scattered Clouds,30,2013-03-28 22:55:00
4:15 PM,59.0,46.4,63,30.09,10.0,ENE,4.6,-,N/A,,Partly Cloudy,60,2013-03-28 23:15:00
4:35 PM,60.8,46.4,59,30.08,10.0,NNW,4.6,-,N/A,,Partly Cloudy,340,2013-03-28 23:35:00
4:55 PM,60.8,46.4,59,30.09,10.0,NNW,4.6,-,N/A,,Partly Cloudy,330,2013-03-28 23:55:00
5:15 PM,59.0,48.2,67,30.09,10.0,North,3.5,-,N/A,,Scattered Clouds,360,2013-03-29 00:15:00
5:35 PM,59.0,48.2,67,30.09,10.0,North,4.6,-,N/A,,Mostly Cloudy,360,2013-03-29 00:35:00
5:55 PM,59.0,46.4,63,30.09,10.0,Calm,Calm,-,N/A,,Mostly Cloudy,0,2013-03-29 00:55:00
6:15 PM,59.0,48.2,67,30.09,10.0,Calm,Calm,-,N/A,,Mostly Cloudy,0,2013-03-29 01:15:00
6:35 PM,59.0,48.2,67,30.09,10.0,SSW,3.5,-,N/A,,Scattered Clouds,210,2013-03-29 01:35:00
6:55 PM,57.2,48.2,72,30.09,10.0,Calm,Calm,-,N/A,,Partly Cloudy,0,2013-03-29 01:55:00
7:15 PM,55.4,50.0,82,30.10,10.0,WNW,3.5,-,N/A,,Scattered Clouds,300,2013-03-29 02:15:00
7:35 PM,53.6,50.0,88,30.10,10.0,WNW,3.5,-,N/A,,Mostly Cloudy,300,2013-03-29 02:35:00
7:55 PM,51.8,48.2,88,30.10,10.0,Calm,Calm,-,N/A,,Partly Cloudy,0,2013-03-29 02:55:00
8:15 PM,51.8,48.2,88,30.10,10.0,Calm,Calm,-,N/A,,Partly Cloudy,0,2013-03-29 03:15:00
8:35 PM,51.8,48.2,88,30.10,10.0,North,3.5,-,N/A,,Mostly Cloudy,10,2013-03-29 03:35:00
8:55 PM,50.0,48.2,94,30.11,10.0,Calm,Calm,-,N/A,,Scattered Clouds,0,2013-03-29 03:55:00
9:15 PM,50.0,46.4,87,30.12,10.0,Calm,Calm,-,N/A,,Mostly Cloudy,0,2013-03-29 04:15:00
9:35 PM,50.0,48.2,94,30.13,10.0,Calm,Calm,-,N/A,,Overcast,0,2013-03-29 04:35:00
9:55 PM,50.0,46.4,87,30.14,10.0,Calm,Calm,-,N/A,,Overcast,0,2013-03-29 04:55:00
10:15 PM,48.2,46.4,93,30.15,10.0,Calm,Calm,-,N/A,,Overcast,0,2013-03-29 05:15:00
10:35 PM,48.2,46.4,93,30.15,10.0,Calm,Calm,-,N/A,,Overcast,0,2013-03-29 05:35:00
10:55 PM,48.2,46.4,93,30.15,10.0,NNE,3.5,-,N/A,,Overcast,30,2013-03-29 05:55:00
11:15 PM,48.2,46.4,93,30.15,10.0,Calm,Calm,-,N/A,,Overcast,0,2013-03-29 06:15:00
11:35 PM,48.2,46.4,93,30.15,10.0,Calm,Calm,-,N/A,,Mostly Cloudy,0,2013-03-29 06:35:00
11:55 PM,48.2,46.4,93,30.16,10.0,Calm,Calm,-,N/A,,Mostly Cloudy,0,2013-03-29 06:55:00